| time (UTC) | temp C | wind direction | speed KPH | gust KPH | rain 1hr cm | rain 24hr cm | rain mn cm | humidity % | barometer mb |
| 20260904141605 | 16 | 53 | 0.0 | 0.0 | 0.00 | 0.00 | 0.00 | 87 | |
| 20260904141403 | 16 | 53 | 0.0 | 0.0 | 0.00 | 0.00 | 0.00 | 87 | |
| 20260904141202 | 16 | 53 | 0.0 | 0.0 | 0.00 | 0.00 | 0.00 | 87 | |
| 20260904141000 | 16 | 53 | 0.0 | 0.0 | 0.00 | 0.00 | 0.00 | 87 | |
| 20260904140758 | 16 | 53 | 0.0 | 0.0 | 0.00 | 0.00 | 0.00 | 87 | |
| 20260904140556 | 16 | 53 | 0.0 | 0.0 | 0.00 | 0.00 | 0.00 | 87 | |
| 20260904140354 | 16 | 53 | 0.0 | 0.0 | 0.00 | 0.00 | 0.00 | 88 | |
| 20260904140154 | 16 | 53 | 0.0 | 0.0 | 0.00 | 0.00 | 0.00 | 88 | |
| 20260904135952 | 16 | 53 | 0.0 | 0.0 | 0.00 | 0.00 | 0.00 | 88 | |
| 20260904135748 | 16 | 53 | 0.0 | 0.0 | 0.00 | 0.00 | 0.00 | 88 | |
| 20260904135547 | 16 | 53 | 0.0 | 0.0 | 0.00 | 0.00 | 0.00 | 88 | |
| 20260904135344 | 16 | 53 | 0.0 | 0.0 | 0.00 | 0.00 | 0.00 | 88 | |
| 20260904135143 | 16 | 53 | 0.0 | 1.6 | 0.00 | 0.00 | 0.00 | 88 | |
| 20260904134739 | 16 | 53 | 0.0 | 3.2 | 0.00 | 0.00 | 0.00 | 88 | |
| 20260904134335 | 16 | 63 | 0.0 | 3.2 | 0.00 | 0.00 | 0.00 | 88 | |
| 20260904134133 | 16 | 57 | 0.0 | 3.2 | 0.00 | 0.00 | 0.00 | 88 | |
| 20260904133933 | 16 | 54 | 0.0 | 3.2 | 0.00 | 0.00 | 0.00 | 88 | |
| 20260904133731 | 16 | 71 | 1.6 | 0.0 | 0.00 | 0.00 | 0.00 | 88 | |
| 20260904133325 | 16 | 42 | 0.0 | 0.0 | 0.00 | 0.00 | 0.00 | 88 | |
| 20260904132922 | 16 | 42 | 0.0 | 1.6 | 0.00 | 0.00 | 0.00 | 88 | |
| 20260904132720 | 16 | 82 | 0.0 | 1.6 | 0.00 | 0.00 | 0.00 | 88 | |
| 20260904132518 | 16 | 82 | 0.0 | 1.6 | 0.00 | 0.00 | 0.00 | 88 | |
| 20260904132316 | 16 | 82 | 0.0 | 1.6 | 0.00 | 0.00 | 0.00 | 88 | |
| 20260904132114 | 16 | 60 | 0.0 | 0.0 | 0.00 | 0.00 | 0.00 | 88 | |
| 20260904131912 | 16 | 60 | 0.0 | 0.0 | 0.00 | 0.00 | 0.00 | 88 | |
| 20260904131710 | 16 | 60 | 0.0 | 0.0 | 0.00 | 0.00 | 0.00 | 88 | |
| 20260904131508 | 16 | 60 | 0.0 | 0.0 | 0.00 | 0.00 | 0.00 | 88 | |
| 20260904131306 | 16 | 60 | 0.0 | 0.0 | 0.00 | 0.00 | 0.00 | 88 | |
| 20260904131104 | 16 | 60 | 0.0 | 8.0 | 0.00 | 0.00 | 0.00 | 88 | |
| 20260904130903 | 16 | 60 | 0.0 | 8.0 | 0.00 | 0.00 | 0.00 | 88 | |
| 20260904130701 | 16 | 60 | 0.0 | 8.0 | 0.00 | 0.00 | 0.00 | 88 | |
| 20260904130257 | 16 | 106 | 3.2 | 8.0 | 0.00 | 0.00 | 0.00 | 88 | |
| 20260904130055 | 16 | 108 | 6.4 | 8.0 | 0.00 | 0.00 | 0.00 | 88 | |
| 20260904125853 | 16 | 75 | 1.6 | 8.0 | 0.00 | 0.00 | 0.00 | 88 | |
| 20260904125651 | 15 | 106 | 8.0 | 6.4 | 0.00 | 0.00 | 0.00 | 88 | |
| 20260904125449 | 15 | 75 | 3.2 | 6.4 | 0.00 | 0.00 | 0.00 | 88 | |
| 20260904125247 | 15 | 104 | 4.8 | 6.4 | 0.00 | 0.00 | 0.00 | 88 | |
| 20260904125045 | 15 | 102 | 3.2 | 6.4 | 0.00 | 0.00 | 0.00 | 87 | |
| 20260904124844 | 15 | 106 | 4.8 | 6.4 | 0.00 | 0.00 | 0.00 | 87 | |
| 20260904124642 | 15 | 112 | 1.6 | 6.4 | 0.00 | 0.00 | 0.00 | 87 | |
| 20260904124441 | 15 | 120 | 3.2 | 6.4 | 0.00 | 0.00 | 0.00 | 87 | |
| 20260904124238 | 15 | 106 | 4.8 | 8.0 | 0.00 | 0.00 | 0.00 | 87 | |
| 20260904124036 | 15 | 113 | 3.2 | 8.0 | 0.00 | 0.00 | 0.00 | 87 | |
| 20260904123834 | 15 | 112 | 4.8 | 8.0 | 0.00 | 0.00 | 0.00 | 88 | |
| 20260904123632 | 15 | 99 | 6.4 | 6.4 | 0.00 | 0.00 | 0.00 | 88 | |
| 20260904123430 | 15 | 102 | 4.8 | 6.4 | 0.00 | 0.00 | 0.00 | 88 | |
| 20260904123228 | 15 | 97 | 1.6 | 0.0 | 0.00 | 0.00 | 0.00 | 88 | |
| 20260904123026 | 15 | 113 | 4.8 | 0.0 | 0.00 | 0.00 | 0.00 | 88 | |
| 20260904122824 | 15 | 175 | 0.0 | 0.0 | 0.00 | 0.00 | 0.00 | 87 | |
| 20260904122623 | 15 | 175 | 0.0 | 0.0 | 0.00 | 0.00 | 0.00 | 87 | |
| 20260904122422 | 15 | 175 | 0.0 | 0.0 | 0.00 | 0.00 | 0.00 | 88 | |
| 20260904122219 | 15 | 175 | 0.0 | 0.0 | 0.00 | 0.00 | 0.00 | 88 | |
| 20260904122017 | 15 | 175 | 0.0 | 0.0 | 0.00 | 0.00 | 0.00 | 88 | |
| 20260904121816 | 15 | 175 | 0.0 | 0.0 | 0.00 | 0.00 | 0.00 | 88 | |
| 20260904121613 | 15 | 175 | 0.0 | 0.0 | 0.00 | 0.00 | 0.00 | 88 | |
| 20260904121411 | 15 | 175 | 0.0 | 0.0 | 0.00 | 0.00 | 0.00 | 88 | |
| 20260904121209 | 15 | 175 | 0.0 | 0.0 | 0.00 | 0.00 | 0.00 | 88 | |
| 20260904120805 | 15 | 175 | 0.0 | 0.0 | 0.00 | 0.00 | 0.00 | 88 | |
| 20260904120605 | 15 | 175 | 0.0 | 0.0 | 0.00 | 0.00 | 0.00 | 88 | |
| 20260904120402 | 15 | 175 | 0.0 | 0.0 | 0.00 | 0.00 | 0.00 | 88 | |
| 20260904120200 | 15 | 175 | 0.0 | 0.0 | 0.00 | 0.00 | 0.00 | 88 | |
| 20260904115958 | 15 | 175 | 0.0 | 0.0 | 0.00 | 0.00 | 0.00 | 88 | |
| 20260904115556 | 15 | 175 | 0.0 | 0.0 | 0.00 | 0.00 | 0.00 | 88 | |
| 20260904115352 | 15 | 175 | 0.0 | 0.0 | 0.00 | 0.00 | 0.00 | 88 | |
| 20260904115150 | 15 | 175 | 0.0 | 0.0 | 0.00 | 0.00 | 0.00 | 88 | |
| 20260904114948 | 15 | 175 | 0.0 | 0.0 | 0.00 | 0.00 | 0.00 | 89 | |
| 20260904114746 | 15 | 175 | 0.0 | 0.0 | 0.00 | 0.00 | 0.00 | 88 | |
| 20260904114544 | 15 | 175 | 0.0 | 0.0 | 0.00 | 0.00 | 0.00 | 88 | |
| 20260904114343 | 15 | 175 | 0.0 | 0.0 | 0.00 | 0.00 | 0.00 | 88 | |
| 20260904114141 | 15 | 175 | 0.0 | 0.0 | 0.00 | 0.00 | 0.00 | 88 | |
| 20260904113939 | 15 | 175 | 0.0 | 0.0 | 0.00 | 0.00 | 0.00 | 88 | |
| 20260904113737 | 15 | 175 | 0.0 | 0.0 | 0.00 | 0.00 | 0.00 | 88 | |
| 20260904113535 | 15 | 175 | 0.0 | 0.0 | 0.00 | 0.00 | 0.00 | 88 | |
| 20260904113333 | 15 | 175 | 0.0 | 0.0 | 0.00 | 0.00 | 0.00 | 88 | |
| 20260904113131 | 15 | 175 | 0.0 | 0.0 | 0.00 | 0.00 | 0.00 | 88 | |
| 20260904112929 | 15 | 175 | 0.0 | 0.0 | 0.00 | 0.00 | 0.00 | 88 | |
| 20260904112729 | 15 | 175 | 0.0 | 0.0 | 0.00 | 0.00 | 0.00 | 88 | |
| 20260904112525 | 15 | 175 | 0.0 | 0.0 | 0.00 | 0.00 | 0.00 | 88 | |
| 20260904112324 | 15 | 175 | 0.0 | 0.0 | 0.00 | 0.00 | 0.00 | 88 | |
| 20260904112122 | 15 | 175 | 0.0 | 0.0 | 0.00 | 0.00 | 0.00 | 88 | |
| 20260904111920 | 15 | 175 | 0.0 | 0.0 | 0.00 | 0.00 | 0.00 | 88 | |
| 20260904111718 | 15 | 175 | 0.0 | 0.0 | 0.00 | 0.00 | 0.00 | 88 | |
| 20260904111516 | 15 | 175 | 0.0 | 0.0 | 0.00 | 0.00 | 0.00 | 87 | |
| 20260904111314 | 15 | 175 | 0.0 | 0.0 | 0.00 | 0.00 | 0.00 | 87 | |
| 20260904111113 | 15 | 175 | 0.0 | 0.0 | 0.00 | 0.00 | 0.00 | 87 | |
| 20260904110912 | 15 | 175 | 0.0 | 0.0 | 0.00 | 0.00 | 0.00 | 87 | |
| 20260904110710 | 15 | 175 | 0.0 | 0.0 | 0.00 | 0.00 | 0.00 | 87 | |
| 20260904110306 | 15 | 175 | 0.0 | 0.0 | 0.00 | 0.00 | 0.00 | 87 | |
| 20260904110105 | 15 | 175 | 0.0 | 0.0 | 0.00 | 0.00 | 0.00 | 87 | |
| 20260904105902 | 15 | 175 | 0.0 | 0.0 | 0.00 | 0.00 | 0.00 | 87 | |
| 20260904105659 | 15 | 175 | 0.0 | 0.0 | 0.00 | 0.00 | 0.00 | 87 | |
| 20260904105458 | 15 | 175 | 0.0 | 0.0 | 0.00 | 0.00 | 0.00 | 87 | |
| 20260904105255 | 15 | 175 | 0.0 | 0.0 | 0.00 | 0.00 | 0.00 | 87 | |
| 20260904105053 | 15 | 175 | 0.0 | 0.0 | 0.00 | 0.00 | 0.00 | 86 | |
| 20260904104853 | 15 | 175 | 0.0 | 0.0 | 0.00 | 0.00 | 0.00 | 86 | |
| 20260904104650 | 15 | 175 | 0.0 | 0.0 | 0.00 | 0.00 | 0.00 | 86 | |
| 20260904104447 | 15 | 175 | 0.0 | 0.0 | 0.00 | 0.00 | 0.00 | 86 | |
| 20260904104043 | 15 | 175 | 0.0 | 0.0 | 0.00 | 0.00 | 0.00 | 87 | |
| 20260904103842 | 15 | 175 | 0.0 | 0.0 | 0.00 | 0.00 | 0.00 | 87 | |
| 20260904103642 | 15 | 175 | 0.0 | 0.0 | 0.00 | 0.00 | 0.00 | 87 | |
| 20260904103438 | 15 | 175 | 0.0 | 0.0 | 0.00 | 0.00 | 0.00 | 86 | |
| 20260904103236 | 15 | 175 | 0.0 | 0.0 | 0.00 | 0.00 | 0.00 | 86 | |
| 20260904103034 | 15 | 175 | 0.0 | 0.0 | 0.00 | 0.00 | 0.00 | 86 | |
| 20260904102832 | 15 | 175 | 0.0 | 0.0 | 0.00 | 0.00 | 0.00 | 86 | |
| 20260904102630 | 15 | 175 | 0.0 | 0.0 | 0.00 | 0.00 | 0.00 | 86 | |
| 20260904102428 | 15 | 175 | 0.0 | 0.0 | 0.00 | 0.00 | 0.00 | 86 | |
| 20260904102226 | 15 | 175 | 0.0 | 0.0 | 0.00 | 0.00 | 0.00 | 86 | |
| 20260904102024 | 15 | 175 | 0.0 | 0.0 | 0.00 | 0.00 | 0.00 | 86 | |
| 20260904101823 | 15 | 175 | 0.0 | 0.0 | 0.00 | 0.00 | 0.00 | 86 | |
| 20260904101621 | 15 | 175 | 0.0 | 0.0 | 0.00 | 0.00 | 0.00 | 86 | |
| 20260904101419 | 15 | 175 | 0.0 | 0.0 | 0.00 | 0.00 | 0.00 | 86 | |
| 20260904101217 | 15 | 175 | 0.0 | 0.0 | 0.00 | 0.00 | 0.00 | 86 | |
| 20260904101015 | 15 | 175 | 0.0 | 0.0 | 0.00 | 0.00 | 0.00 | 86 | |
| 20260904100813 | 15 | 175 | 0.0 | 0.0 | 0.00 | 0.00 | 0.00 | 86 | |
| 20260904100611 | 15 | 175 | 0.0 | 0.0 | 0.00 | 0.00 | 0.00 | 86 | |
| 20260904100409 | 15 | 175 | 0.0 | 0.0 | 0.00 | 0.00 | 0.00 | 86 | |
| 20260904100207 | 15 | 175 | 0.0 | 0.0 | 0.00 | 0.00 | 0.00 | 86 | |
| 20260904100006 | 15 | 175 | 0.0 | 0.0 | 0.00 | 0.00 | 0.00 | 86 | |
| 20260904095803 | 15 | 175 | 0.0 | 0.0 | 0.00 | 0.00 | 0.00 | 86 | |
| 20260904095602 | 15 | 175 | 0.0 | 0.0 | 0.00 | 0.00 | 0.00 | 86 | |
| 20260904095400 | 15 | 175 | 0.0 | 0.0 | 0.00 | 0.00 | 0.00 | 86 | |
| 20260904095159 | 15 | 175 | 0.0 | 0.0 | 0.00 | 0.00 | 0.00 | 86 | |
| 20260904094956 | 15 | 175 | 0.0 | 0.0 | 0.00 | 0.00 | 0.00 | 86 | |
| 20260904094754 | 15 | 175 | 0.0 | 0.0 | 0.00 | 0.00 | 0.00 | 86 | |
| 20260904094552 | 15 | 175 | 0.0 | 0.0 | 0.00 | 0.00 | 0.00 | 86 | |
| 20260904094350 | 15 | 175 | 0.0 | 0.0 | 0.00 | 0.00 | 0.00 | 86 | |
| 20260904094148 | 15 | 175 | 0.0 | 0.0 | 0.00 | 0.00 | 0.00 | 86 | |
| 20260904093946 | 15 | 175 | 0.0 | 0.0 | 0.00 | 0.00 | 0.00 | 86 | |
| 20260904093746 | 15 | 175 | 0.0 | 0.0 | 0.00 | 0.00 | 0.00 | 86 | |
| 20260904093543 | 15 | 175 | 0.0 | 0.0 | 0.00 | 0.00 | 0.00 | 85 | |
| 20260904093341 | 15 | 175 | 0.0 | 0.0 | 0.00 | 0.00 | 0.00 | 85 | |
| 20260904093139 | 15 | 175 | 0.0 | 0.0 | 0.00 | 0.00 | 0.00 | 85 | |
| 20260904092937 | 15 | 175 | 0.0 | 0.0 | 0.00 | 0.00 | 0.00 | 85 | |
| 20260904092735 | 15 | 175 | 0.0 | 0.0 | 0.00 | 0.00 | 0.00 | 85 | |
| 20260904092533 | 15 | 175 | 0.0 | 0.0 | 0.00 | 0.00 | 0.00 | 85 | |
| 20260904092333 | 15 | 175 | 0.0 | 0.0 | 0.00 | 0.00 | 0.00 | 85 | |
| 20260904092129 | 15 | 175 | 0.0 | 0.0 | 0.00 | 0.00 | 0.00 | 85 | |
| 20260904091929 | 15 | 175 | 0.0 | 0.0 | 0.00 | 0.00 | 0.00 | 85 | |
| 20260904091524 | 15 | 175 | 0.0 | 0.0 | 0.00 | 0.00 | 0.00 | 85 | |
| 20260904091322 | 15 | 175 | 0.0 | 0.0 | 0.00 | 0.00 | 0.00 | 85 | |
| 20260904091120 | 15 | 175 | 0.0 | 0.0 | 0.00 | 0.00 | 0.00 | 85 | |
| 20260904090918 | 15 | 175 | 0.0 | 0.0 | 0.00 | 0.00 | 0.00 | 85 | |
| 20260904090716 | 15 | 175 | 0.0 | 0.0 | 0.00 | 0.00 | 0.00 | 85 | |
| 20260904090514 | 15 | 175 | 0.0 | 0.0 | 0.00 | 0.00 | 0.00 | 85 | |
| 20260904090312 | 15 | 175 | 0.0 | 0.0 | 0.00 | 0.00 | 0.00 | 85 | |
| 20260904090110 | 15 | 175 | 0.0 | 0.0 | 0.00 | 0.00 | 0.00 | 85 | |
| 20260904085908 | 15 | 175 | 0.0 | 0.0 | 0.00 | 0.00 | 0.00 | 85 | |
| 20260904085305 | 15 | 175 | 0.0 | 0.0 | 0.00 | 0.00 | 0.00 | 85 | |
| 20260904085101 | 15 | 175 | 0.0 | 0.0 | 0.00 | 0.00 | 0.00 | 84 | |
| 20260904084859 | 15 | 175 | 0.0 | 0.0 | 0.00 | 0.00 | 0.00 | 84 | |
| 20260904084657 | 15 | 175 | 0.0 | 0.0 | 0.00 | 0.00 | 0.00 | 84 | |
| 20260904084455 | 15 | 175 | 0.0 | 0.0 | 0.00 | 0.00 | 0.00 | 84 | |
| 20260904084255 | 15 | 175 | 0.0 | 0.0 | 0.00 | 0.00 | 0.00 | 84 | |
| 20260904084051 | 15 | 175 | 0.0 | 0.0 | 0.00 | 0.00 | 0.00 | 84 | |
| 20260904083849 | 15 | 175 | 0.0 | 0.0 | 0.00 | 0.00 | 0.00 | 84 | |
| 20260904083647 | 15 | 175 | 0.0 | 0.0 | 0.00 | 0.00 | 0.00 | 84 | |
| 20260904083445 | 15 | 175 | 0.0 | 0.0 | 0.00 | 0.00 | 0.00 | 84 | |
| 20260904083244 | 15 | 175 | 0.0 | 0.0 | 0.00 | 0.00 | 0.00 | 84 | |
| 20260904083044 | 16 | 175 | 0.0 | 0.0 | 0.00 | 0.00 | 0.00 | 84 | |
| 20260904082840 | 16 | 175 | 0.0 | 0.0 | 0.00 | 0.00 | 0.00 | 84 | |
| 20260904082638 | 16 | 175 | 0.0 | 0.0 | 0.00 | 0.00 | 0.00 | 84 | |
| 20260904082436 | 16 | 175 | 0.0 | 0.0 | 0.00 | 0.00 | 0.00 | 84 | |
| 20260904082234 | 16 | 175 | 0.0 | 0.0 | 0.00 | 0.00 | 0.00 | 84 | |
| 20260904082032 | 16 | 175 | 0.0 | 0.0 | 0.00 | 0.00 | 0.00 | 84 | |
| 20260904081830 | 16 | 175 | 0.0 | 0.0 | 0.00 | 0.00 | 0.00 | 84 | |
| 20260904081628 | 16 | 175 | 0.0 | 0.0 | 0.00 | 0.00 | 0.00 | 84 | |
| 20260904081426 | 16 | 175 | 0.0 | 0.0 | 0.00 | 0.00 | 0.00 | 84 | |
| 20260904081224 | 16 | 175 | 0.0 | 0.0 | 0.00 | 0.00 | 0.00 | 84 | |
| 20260904081024 | 16 | 175 | 0.0 | 0.0 | 0.00 | 0.00 | 0.00 | 84 | |
| 20260904080821 | 16 | 175 | 0.0 | 0.0 | 0.00 | 0.00 | 0.00 | 84 | |
| 20260904080619 | 16 | 175 | 0.0 | 0.0 | 0.00 | 0.00 | 0.00 | 84 | |
| 20260904080417 | 16 | 175 | 0.0 | 0.0 | 0.00 | 0.00 | 0.00 | 84 | |
| 20260904080215 | 16 | 175 | 0.0 | 0.0 | 0.00 | 0.00 | 0.00 | 84 | |
| 20260904080013 | 16 | 175 | 0.0 | 0.0 | 0.00 | 0.00 | 0.00 | 84 | |
| 20260904075811 | 16 | 175 | 0.0 | 0.0 | 0.00 | 0.00 | 0.00 | 85 | |
| 20260904075609 | 16 | 175 | 0.0 | 0.0 | 0.00 | 0.00 | 0.00 | 85 | |
| 20260904075205 | 16 | 175 | 0.0 | 0.0 | 0.00 | 0.00 | 0.00 | 85 | |
| 20260904075004 | 16 | 175 | 0.0 | 0.0 | 0.00 | 0.00 | 0.00 | 84 | |
| 20260904074804 | 16 | 175 | 0.0 | 0.0 | 0.00 | 0.00 | 0.00 | 84 | |
| 20260904074600 | 16 | 175 | 0.0 | 0.0 | 0.00 | 0.00 | 0.00 | 84 | |
| 20260904074358 | 16 | 175 | 0.0 | 0.0 | 0.00 | 0.00 | 0.00 | 84 | |
| 20260904074156 | 16 | 175 | 0.0 | 0.0 | 0.00 | 0.00 | 0.00 | 84 | |
| 20260904073954 | 16 | 175 | 0.0 | 0.0 | 0.00 | 0.00 | 0.00 | 84 | |
| 20260904073752 | 16 | 175 | 0.0 | 0.0 | 0.00 | 0.00 | 0.00 | 84 | |
| 20260904073550 | 16 | 175 | 0.0 | 0.0 | 0.00 | 0.00 | 0.00 | 84 | |
| 20260904073348 | 16 | 175 | 0.0 | 0.0 | 0.00 | 0.00 | 0.00 | 84 | |
| 20260904073146 | 16 | 175 | 0.0 | 0.0 | 0.00 | 0.00 | 0.00 | 84 | |
| 20260904072944 | 16 | 175 | 0.0 | 0.0 | 0.00 | 0.00 | 0.00 | 84 | |
| 20260904072745 | 16 | 175 | 0.0 | 0.0 | 0.00 | 0.00 | 0.00 | 83 | |
| 20260904072543 | 16 | 175 | 0.0 | 0.0 | 0.00 | 0.00 | 0.00 | 83 | |
| 20260904072339 | 16 | 175 | 0.0 | 0.0 | 0.00 | 0.00 | 0.00 | 83 | |
| 20260904072137 | 16 | 175 | 0.0 | 0.0 | 0.00 | 0.00 | 0.00 | 83 | |
| 20260904071935 | 16 | 175 | 0.0 | 0.0 | 0.00 | 0.00 | 0.00 | 83 | |
| 20260904071533 | 16 | 175 | 0.0 | 0.0 | 0.00 | 0.00 | 0.00 | 83 | |
| 20260904071329 | 16 | 175 | 0.0 | 0.0 | 0.00 | 0.00 | 0.00 | 84 | |
| 20260904071127 | 16 | 175 | 0.0 | 0.0 | 0.00 | 0.00 | 0.00 | 84 | |
| 20260904070925 | 16 | 175 | 0.0 | 0.0 | 0.00 | 0.00 | 0.00 | 84 | |
| 20260904070724 | 16 | 175 | 0.0 | 0.0 | 0.00 | 0.00 | 0.00 | 84 | |
| 20260904070522 | 16 | 175 | 0.0 | 0.0 | 0.00 | 0.00 | 0.00 | 83 | |
| 20260904070320 | 16 | 175 | 0.0 | 0.0 | 0.00 | 0.00 | 0.00 | 83 | |
| 20260904070118 | 16 | 175 | 0.0 | 0.0 | 0.00 | 0.00 | 0.00 | 83 | |
| 20260904065916 | 16 | 175 | 0.0 | 0.0 | 0.00 | 0.00 | 0.00 | 83 | |
| 20260904065714 | 16 | 175 | 0.0 | 0.0 | 0.00 | 0.00 | 0.00 | 83 | |
| 20260904065512 | 16 | 175 | 0.0 | 0.0 | 0.00 | 0.00 | 0.00 | 84 | |
| 20260904065310 | 16 | 175 | 0.0 | 0.0 | 0.00 | 0.00 | 0.00 | 83 | |
| 20260904065108 | 16 | 175 | 0.0 | 0.0 | 0.00 | 0.00 | 0.00 | 83 | |
| 20260904064906 | 16 | 175 | 0.0 | 0.0 | 0.00 | 0.00 | 0.00 | 83 | |
| 20260904064301 | 16 | 175 | 0.0 | 0.0 | 0.00 | 0.00 | 0.00 | 83 | |
| 20260904064059 | 16 | 175 | 0.0 | 0.0 | 0.00 | 0.00 | 0.00 | 82 | |
| 20260904063857 | 16 | 175 | 0.0 | 0.0 | 0.00 | 0.00 | 0.00 | 82 | |
| 20260904063655 | 16 | 175 | 0.0 | 0.0 | 0.00 | 0.00 | 0.00 | 82 | |
| 20260904063453 | 16 | 175 | 0.0 | 0.0 | 0.00 | 0.00 | 0.00 | 82 | |
| 20260904063251 | 16 | 175 | 0.0 | 0.0 | 0.00 | 0.00 | 0.00 | 82 | |
| 20260904063049 | 16 | 175 | 0.0 | 0.0 | 0.00 | 0.00 | 0.00 | 81 | |
| 20260904062847 | 16 | 175 | 0.0 | 0.0 | 0.00 | 0.00 | 0.00 | 81 | |
| 20260904062647 | 16 | 175 | 0.0 | 0.0 | 0.00 | 0.00 | 0.00 | 81 | |
| 20260904062443 | 17 | 175 | 0.0 | 0.0 | 0.00 | 0.00 | 0.00 | 81 | |
| 20260904062242 | 17 | 175 | 0.0 | 0.0 | 0.00 | 0.00 | 0.00 | 81 | |
| 20260904062040 | 17 | 175 | 0.0 | 0.0 | 0.00 | 0.00 | 0.00 | 81 | |
| 20260904061838 | 17 | 175 | 0.0 | 0.0 | 0.00 | 0.00 | 0.00 | 81 | |
| 20260904061636 | 17 | 175 | 0.0 | 0.0 | 0.00 | 0.00 | 0.00 | 81 | |
| 20260904061434 | 17 | 175 | 0.0 | 0.0 | 0.00 | 0.00 | 0.00 | 81 | |
| 20260904061232 | 17 | 175 | 0.0 | 0.0 | 0.00 | 0.00 | 0.00 | 81 | |
| 20260904061030 | 17 | 175 | 0.0 | 0.0 | 0.00 | 0.00 | 0.00 | 81 | |
| 20260904060828 | 17 | 175 | 0.0 | 0.0 | 0.00 | 0.00 | 0.00 | 81 | |
| 20260904060626 | 17 | 175 | 0.0 | 0.0 | 0.00 | 0.00 | 0.00 | 81 | |
| 20260904060424 | 17 | 175 | 0.0 | 0.0 | 0.00 | 0.00 | 0.00 | 81 | |
| 20260904060223 | 17 | 175 | 0.0 | 0.0 | 0.00 | 0.00 | 0.00 | 81 | |
| 20260904060021 | 17 | 175 | 0.0 | 0.0 | 0.00 | 0.00 | 0.00 | 81 | |
| 20260904055819 | 17 | 175 | 0.0 | 0.0 | 0.00 | 0.00 | 0.00 | 81 | |
| 20260904055617 | 17 | 175 | 0.0 | 0.0 | 0.00 | 0.00 | 0.00 | 81 | |
| 20260904055415 | 17 | 175 | 0.0 | 0.0 | 0.00 | 0.00 | 0.00 | 81 | |
| 20260904055213 | 17 | 175 | 0.0 | 0.0 | 0.00 | 0.00 | 0.00 | 81 | |
| 20260904055011 | 17 | 175 | 0.0 | 0.0 | 0.00 | 0.00 | 0.00 | 81 | |
| 20260904054809 | 17 | 175 | 0.0 | 0.0 | 0.00 | 0.00 | 0.00 | 81 | |
| 20260904054607 | 17 | 175 | 0.0 | 0.0 | 0.00 | 0.00 | 0.00 | 81 | |
| 20260904054405 | 17 | 175 | 0.0 | 0.0 | 0.00 | 0.00 | 0.00 | 80 | |
| 20260904054203 | 17 | 175 | 0.0 | 0.0 | 0.00 | 0.00 | 0.00 | 80 | |
| 20260904054002 | 17 | 175 | 0.0 | 0.0 | 0.00 | 0.00 | 0.00 | 80 | |
| 20260904053800 | 17 | 175 | 0.0 | 0.0 | 0.00 | 0.00 | 0.00 | 80 | |
| 20260904053558 | 17 | 175 | 0.0 | 0.0 | 0.00 | 0.00 | 0.00 | 80 | |
| 20260904053359 | 17 | 175 | 0.0 | 0.0 | 0.00 | 0.00 | 0.00 | 80 | |
| 20260904053154 | 17 | 175 | 0.0 | 0.0 | 0.00 | 0.00 | 0.00 | 80 | |
| 20260904052952 | 17 | 175 | 0.0 | 0.0 | 0.00 | 0.00 | 0.00 | 80 | |
| 20260904052750 | 17 | 175 | 0.0 | 0.0 | 0.00 | 0.00 | 0.00 | 80 | |
| 20260904052548 | 17 | 175 | 0.0 | 0.0 | 0.00 | 0.00 | 0.00 | 80 | |
| 20260904052346 | 17 | 175 | 0.0 | 0.0 | 0.00 | 0.00 | 0.00 | 80 | |
| 20260904052144 | 17 | 175 | 0.0 | 0.0 | 0.00 | 0.00 | 0.00 | 80 | |
| 20260904051942 | 17 | 175 | 0.0 | 0.0 | 0.00 | 0.00 | 0.00 | 80 | |
| 20260904051539 | 17 | 175 | 0.0 | 0.0 | 0.00 | 0.00 | 0.00 | 80 | |
| 20260904051337 | 17 | 175 | 0.0 | 0.0 | 0.00 | 0.00 | 0.00 | 80 | |
| 20260904051135 | 17 | 175 | 0.0 | 0.0 | 0.00 | 0.00 | 0.00 | 79 | |
| 20260904050933 | 17 | 175 | 0.0 | 0.0 | 0.00 | 0.00 | 0.00 | 79 | |
| 20260904050731 | 17 | 175 | 0.0 | 0.0 | 0.00 | 0.00 | 0.00 | 79 | |
| 20260904050529 | 17 | 175 | 0.0 | 0.0 | 0.00 | 0.00 | 0.00 | 79 | |
| 20260904050327 | 17 | 175 | 0.0 | 0.0 | 0.00 | 0.00 | 0.00 | 79 | |
| 20260904050125 | 17 | 175 | 0.0 | 0.0 | 0.00 | 0.00 | 0.00 | 79 | |
| 20260904045923 | 17 | 175 | 0.0 | 0.0 | 0.00 | 0.00 | 0.00 | 79 | |
| 20260904045722 | 18 | 175 | 0.0 | 0.0 | 0.00 | 0.00 | 0.00 | 79 | |
| 20260904045521 | 18 | 175 | 0.0 | 0.0 | 0.00 | 0.00 | 0.00 | 78 | |
| 20260904045320 | 18 | 175 | 0.0 | 0.0 | 0.00 | 0.00 | 0.00 | 78 | |
| 20260904045118 | 18 | 175 | 0.0 | 0.0 | 0.00 | 0.00 | 0.00 | 78 | |
| 20260904044916 | 18 | 175 | 0.0 | 0.0 | 0.00 | 0.00 | 0.00 | 78 | |
| 20260904044712 | 18 | 175 | 0.0 | 0.0 | 0.00 | 0.00 | 0.00 | 78 | |
| 20260904044512 | 18 | 175 | 0.0 | 0.0 | 0.00 | 0.00 | 0.00 | 78 | |
| 20260904044308 | 18 | 175 | 0.0 | 0.0 | 0.00 | 0.00 | 0.00 | 77 | |
| 20260904043906 | 18 | 175 | 0.0 | 0.0 | 0.00 | 0.00 | 0.00 | 77 | |
| 20260904043703 | 18 | 175 | 0.0 | 0.0 | 0.00 | 0.00 | 0.00 | 77 | |
| 20260904043502 | 18 | 175 | 0.0 | 0.0 | 0.00 | 0.00 | 0.00 | 76 | |
| 20260904043259 | 18 | 175 | 0.0 | 0.0 | 0.00 | 0.00 | 0.00 | 76 | |
| 20260904042855 | 18 | 175 | 0.0 | 0.0 | 0.00 | 0.00 | 0.00 | 75 | |
| 20260904042653 | 18 | 175 | 0.0 | 0.0 | 0.00 | 0.00 | 0.00 | 75 | |
| 20260904042451 | 18 | 175 | 0.0 | 0.0 | 0.00 | 0.00 | 0.00 | 75 | |
| 20260904042249 | 18 | 175 | 0.0 | 0.0 | 0.00 | 0.00 | 0.00 | 75 | |
| 20260904042047 | 18 | 175 | 0.0 | 0.0 | 0.00 | 0.00 | 0.00 | 76 | |
| 20260904041643 | 18 | 175 | 0.0 | 0.0 | 0.00 | 0.00 | 0.00 | 76 | |
| 20260904041441 | 18 | 175 | 0.0 | 0.0 | 0.00 | 0.00 | 0.00 | 76 | |
| 20260904041240 | 18 | 175 | 0.0 | 0.0 | 0.00 | 0.00 | 0.00 | 76 | |
| 20260904041038 | 18 | 175 | 0.0 | 0.0 | 0.00 | 0.00 | 0.00 | 76 | |
| 20260904040836 | 18 | 175 | 0.0 | 0.0 | 0.00 | 0.00 | 0.00 | 76 | |
| 20260904040636 | 18 | 175 | 0.0 | 0.0 | 0.00 | 0.00 | 0.00 | 75 | |
| 20260904040432 | 18 | 175 | 0.0 | 0.0 | 0.00 | 0.00 | 0.00 | 75 | |
| 20260904040230 | 18 | 175 | 0.0 | 0.0 | 0.00 | 0.00 | 0.00 | 76 | |
| 20260904040028 | 18 | 175 | 0.0 | 0.0 | 0.00 | 0.00 | 0.00 | 75 | |
| 20260904035826 | 18 | 175 | 0.0 | 0.0 | 0.00 | 0.00 | 0.00 | 75 | |
| 20260904035624 | 18 | 175 | 0.0 | 0.0 | 0.00 | 0.00 | 0.00 | 75 | |
| 20260904035422 | 18 | 175 | 0.0 | 0.0 | 0.00 | 0.00 | 0.00 | 75 | |
| 20260904035221 | 18 | 175 | 0.0 | 0.0 | 0.00 | 0.00 | 0.00 | 75 | |
| 20260904035019 | 18 | 175 | 0.0 | 0.0 | 0.00 | 0.00 | 0.00 | 75 | |
| 20260904034615 | 18 | 175 | 0.0 | 0.0 | 0.00 | 0.00 | 0.00 | 74 | |
| 20260904034413 | 18 | 175 | 0.0 | 0.0 | 0.00 | 0.00 | 0.00 | 74 | |
| 20260904033807 | 19 | 175 | 0.0 | 0.0 | 0.00 | 0.00 | 0.00 | 73 | |
| 20260904033605 | 19 | 175 | 0.0 | 0.0 | 0.00 | 0.00 | 0.00 | 73 | |
| 20260904033403 | 19 | 175 | 0.0 | 0.0 | 0.00 | 0.00 | 0.00 | 73 | |
| 20260904033000 | 19 | 175 | 0.0 | 0.0 | 0.00 | 0.00 | 0.00 | 73 | |
| 20260904032758 | 19 | 175 | 0.0 | 0.0 | 0.00 | 0.00 | 0.00 | 72 | |
| 20260904032354 | 19 | 175 | 0.0 | 1.6 | 0.00 | 0.00 | 0.00 | 72 | |
| 20260904032152 | 19 | 274 | 0.0 | 0.0 | 0.00 | 0.00 | 0.00 | 72 | |
| 20260904031950 | 19 | 274 | 0.0 | 0.0 | 0.00 | 0.00 | 0.00 | 71 | |
| 20260904031748 | 20 | 274 | 0.0 | 0.0 | 0.00 | 0.00 | 0.00 | 71 | |
| 20260904031546 | 20 | 274 | 0.0 | 0.0 | 0.00 | 0.00 | 0.00 | 71 | |
| 20260904031344 | 20 | 274 | 0.0 | 0.0 | 0.00 | 0.00 | 0.00 | 71 | |
| 20260904031142 | 20 | 274 | 0.0 | 0.0 | 0.00 | 0.00 | 0.00 | 71 | |
| 20260904030941 | 20 | 274 | 0.0 | 0.0 | 0.00 | 0.00 | 0.00 | 71 | |
| 20260904030739 | 20 | 274 | 0.0 | 4.8 | 0.00 | 0.00 | 0.00 | 71 | |
| 20260904030537 | 20 | 274 | 0.0 | 4.8 | 0.00 | 0.00 | 0.00 | 71 | |
| 20260904030335 | 20 | 274 | 0.0 | 4.8 | 0.00 | 0.00 | 0.00 | 71 | |
| 20260904030133 | 20 | 274 | 0.0 | 8.0 | 0.00 | 0.00 | 0.00 | 70 | |
| 20260904025931 | 20 | 285 | 1.6 | 8.0 | 0.00 | 0.00 | 0.00 | 70 | |
| 20260904025729 | 20 | 278 | 0.0 | 9.7 | 0.00 | 0.00 | 0.00 | 71 | |
| 20260904025527 | 20 | 285 | 4.8 | 9.7 | 0.00 | 0.00 | 0.00 | 71 | |
| 20260904025325 | 20 | 282 | 1.6 | 9.7 | 0.00 | 0.00 | 0.00 | 70 | |
| 20260904025123 | 20 | 277 | 3.2 | 11.3 | 0.00 | 0.00 | 0.00 | 70 | |
| 20260904024922 | 20 | 286 | 6.4 | 11.3 | 0.00 | 0.00 | 0.00 | 70 | |
| 20260904024720 | 20 | 289 | 3.2 | 6.4 | 0.00 | 0.00 | 0.00 | 69 | |
| 20260904024518 | 20 | 285 | 3.2 | 6.4 | 0.00 | 0.00 | 0.00 | 69 | |
| 20260904024316 | 20 | 285 | 8.0 | 6.4 | 0.00 | 0.00 | 0.00 | 69 | |
| 20260904024114 | 20 | 279 | 3.2 | 9.7 | 0.00 | 0.00 | 0.00 | 69 | |
| 20260904023912 | 20 | 268 | 3.2 | 9.7 | 0.00 | 0.00 | 0.00 | 68 | |
| 20260904023710 | 20 | 271 | 3.2 | 12.9 | 0.00 | 0.00 | 0.00 | 68 | |
| 20260904023508 | 20 | 257 | 6.4 | 12.9 | 0.00 | 0.00 | 0.00 | 68 | |
| 20260904023308 | 20 | 251 | 0.0 | 12.9 | 0.00 | 0.00 | 0.00 | 67 | |
| 20260904023104 | 20 | 274 | 0.0 | 9.7 | 0.00 | 0.00 | 0.00 | 68 | |
| 20260904022902 | 20 | 282 | 8.0 | 9.7 | 0.00 | 0.00 | 0.00 | 67 | |
| 20260904022700 | 20 | 288 | 3.2 | 11.3 | 0.00 | 0.00 | 0.00 | 66 | |
| 20260904022458 | 21 | 265 | 1.6 | 11.3 | 0.00 | 0.00 | 0.00 | 67 | |
| 20260904022256 | 21 | 293 | 3.2 | 11.3 | 0.00 | 0.00 | 0.00 | 66 | |
| 20260904022054 | 21 | 285 | 4.8 | 12.9 | 0.00 | 0.00 | 0.00 | 66 | |
| 20260904021852 | 21 | 272 | 8.0 | 12.9 | 0.00 | 0.00 | 0.00 | 66 | |
| 20260904021650 | 21 | 274 | 9.7 | 11.3 | 0.00 | 0.00 | 0.00 | 65 | |
| 20260904021448 | 21 | 295 | 6.4 | 11.3 | 0.00 | 0.00 | 0.00 | 64 | |
| 20260904021246 | 21 | 277 | 4.8 | 11.3 | 0.00 | 0.00 | 0.00 | 64 | |
| 20260904021045 | 21 | 289 | 1.6 | 12.9 | 0.00 | 0.00 | 0.00 | 63 | |
| 20260904020843 | 21 | 264 | 6.4 | 12.9 | 0.00 | 0.00 | 0.00 | 63 | |
| 20260904020641 | 21 | 295 | 6.4 | 14.5 | 0.00 | 0.00 | 0.00 | 63 | |
| 20260904020439 | 21 | 278 | 11.3 | 14.5 | 0.00 | 0.00 | 0.00 | 63 | |
| 20260904020237 | 21 | 278 | 11.3 | 16.1 | 0.00 | 0.00 | 0.00 | 63 | |
| 20260904020036 | 21 | 267 | 12.9 | 16.1 | 0.00 | 0.00 | 0.00 | 62 | |
| 20260904015833 | 21 | 270 | 12.9 | 16.1 | 0.00 | 0.00 | 0.00 | 62 | |
| 20260904015632 | 22 | 261 | 12.9 | 12.9 | 0.00 | 0.00 | 0.00 | 61 | |
| 20260904015429 | 22 | 278 | 9.7 | 12.9 | 0.00 | 0.00 | 0.00 | 60 | |
| 20260904015227 | 22 | 265 | 4.8 | 16.1 | 0.00 | 0.00 | 0.00 | 60 | |
| 20260904015027 | 22 | 268 | 9.7 | 16.1 | 0.00 | 0.00 | 0.00 | 60 | |
| 20260904014825 | 22 | 272 | 6.4 | 16.1 | 0.00 | 0.00 | 0.00 | 60 | |
| 20260904014623 | 22 | 278 | 8.0 | 22.5 | 0.00 | 0.00 | 0.00 | 60 | |
| 20260904014419 | 22 | 279 | 12.9 | 22.5 | 0.00 | 0.00 | 0.00 | 60 | |
| 20260904014219 | 22 | 272 | 12.9 | 20.9 | 0.00 | 0.00 | 0.00 | 59 | |
| 20260904014015 | 22 | 258 | 17.7 | 20.9 | 0.00 | 0.00 | 0.00 | 59 | |
| 20260904013815 | 22 | 265 | 14.5 | 20.9 | 0.00 | 0.00 | 0.00 | 59 | |
| 20260904013613 | 22 | 270 | 9.7 | 16.1 | 0.00 | 0.00 | 0.00 | 59 | |
| 20260904013409 | 22 | 254 | 14.5 | 16.1 | 0.00 | 0.00 | 0.00 | 58 | |
| 20260904013209 | 22 | 260 | 16.1 | 19.3 | 0.00 | 0.00 | 0.00 | 58 | |
| 20260904013007 | 22 | 271 | 14.5 | 19.3 | 0.00 | 0.00 | 0.00 | 58 | |
| 20260904012803 | 22 | 253 | 9.7 | 19.3 | 0.00 | 0.00 | 0.00 | 58 | |
| 20260904012601 | 22 | 258 | 19.3 | 20.9 | 0.00 | 0.00 | 0.00 | 57 | |
| 20260904012401 | 22 | 268 | 11.3 | 20.9 | 0.00 | 0.00 | 0.00 | 58 | |
| 20260904012159 | 22 | 270 | 17.7 | 24.1 | 0.00 | 0.00 | 0.00 | 58 | |
| 20260904011956 | 22 | 267 | 14.5 | 24.1 | 0.00 | 0.00 | 0.00 | 58 | |
| 20260904011755 | 22 | 264 | 8.0 | 24.1 | 0.00 | 0.00 | 0.00 | 58 | |
| 20260904011552 | 22 | 268 | 16.1 | 22.5 | 0.00 | 0.00 | 0.00 | 58 | |
| 20260904011350 | 22 | 296 | 8.0 | 22.5 | 0.00 | 0.00 | 0.00 | 58 | |
| 20260904010341 | 23 | 277 | 16.1 | 24.1 | 0.00 | 0.00 | 0.00 | 57 | |
| 20260904010138 | 23 | 258 | 20.9 | 22.5 | 0.00 | 0.00 | 0.00 | 57 | |
| 20260904005936 | 23 | 261 | 8.0 | 22.5 | 0.00 | 0.00 | 0.00 | 57 | |
| 20260904005734 | 23 | 285 | 9.7 | 20.9 | 0.00 | 0.00 | 0.00 | 58 | |
| 20260904005532 | 23 | 272 | 14.5 | 20.9 | 0.00 | 0.00 | 0.00 | 58 | |
| 20260904005330 | 23 | 260 | 20.9 | 20.9 | 0.00 | 0.00 | 0.00 | 58 | |
| 20260904005130 | 23 | 265 | 11.3 | 22.5 | 0.00 | 0.00 | 0.00 | 58 | |
| 20260904004928 | 23 | 268 | 16.1 | 22.5 | 0.00 | 0.00 | 0.00 | 57 | |
| 20260904004726 | 23 | 277 | 14.5 | 20.9 | 0.00 | 0.00 | 0.00 | 57 | |
| 20260904004522 | 23 | 251 | 12.9 | 20.9 | 0.00 | 0.00 | 0.00 | 57 | |
| 20260904004322 | 23 | 274 | 8.0 | 20.9 | 0.00 | 0.00 | 0.00 | 57 | |
| 20260904004118 | 23 | 255 | 17.7 | 24.1 | 0.00 | 0.00 | 0.00 | 56 | |
| 20260904003918 | 23 | 251 | 4.8 | 24.1 | 0.00 | 0.00 | 0.00 | 57 | |
| 20260904003716 | 23 | 261 | 20.9 | 24.1 | 0.00 | 0.00 | 0.00 | 56 | |
| 20260904003514 | 23 | 262 | 16.1 | 24.1 | 0.00 | 0.00 | 0.00 | 56 | |
| 20260904003311 | 23 | 253 | 12.9 | 24.1 | 0.00 | 0.00 | 0.00 | 56 | |
| 20260904003109 | 23 | 264 | 22.5 | 19.3 | 0.00 | 0.00 | 0.00 | 55 | |
| 20260904002907 | 23 | 278 | 11.3 | 19.3 | 0.00 | 0.00 | 0.00 | 55 | |
| 20260904002503 | 23 | 258 | 16.1 | 20.9 | 0.00 | 0.00 | 0.00 | 55 | |
| 20260904002306 | 23 | 255 | 12.9 | 20.9 | 0.00 | 0.00 | 0.00 | 55 | |
| 20260904002059 | 23 | 262 | 9.7 | 24.1 | 0.00 | 0.00 | 0.00 | 55 | |
| 20260904001857 | 23 | 261 | 17.7 | 24.1 | 0.00 | 0.00 | 0.00 | 56 | |
| 20260904001655 | 23 | 268 | 11.3 | 19.3 | 0.00 | 0.00 | 0.00 | 56 | |
| 20260904001453 | 23 | 260 | 14.5 | 19.3 | 0.00 | 0.00 | 0.00 | 56 | |
| 20260904001253 | 23 | 255 | 4.8 | 19.3 | 0.00 | 0.00 | 0.00 | 56 | |
| 20260904001049 | 23 | 272 | 12.9 | 22.5 | 0.00 | 0.00 | 0.00 | 56 | |
| 20260904000443 | 23 | 246 | 17.7 | 22.5 | 0.00 | 0.00 | 0.00 | 56 | |
| 20260904000241 | 23 | 265 | 19.3 | 25.7 | 0.00 | 0.00 | 0.00 | 56 | |
| 20260904000039 | 23 | 270 | 17.7 | 25.7 | 0.00 | 0.00 | 0.00 | 55 | |
| 20260903235837 | 24 | 285 | 11.3 | 25.7 | 0.00 | 0.00 | 0.00 | 54 | |
| 20260903235433 | 23 | 261 | 11.3 | 24.1 | 0.00 | 0.00 | 0.00 | 55 | |
| 20260903235231 | 23 | 251 | 12.9 | 25.7 | 0.00 | 0.00 | 0.00 | 55 | |
| 20260903235029 | 23 | 309 | 9.7 | 25.7 | 0.00 | 0.00 | 0.00 | 56 | |
| 20260903234827 | 23 | 255 | 20.9 | 25.7 | 0.00 | 0.00 | 0.00 | 55 | |
| 20260903234423 | 23 | 271 | 19.3 | 29.0 | 0.00 | 0.00 | 0.00 | 56 | |
| 20260903234224 | 23 | 251 | 20.9 | 27.4 | 0.00 | 0.00 | 0.00 | 55 | |
| 20260903234020 | 23 | 262 | 25.7 | 27.4 | 0.00 | 0.00 | 0.00 | 55 | |
| 20260903233616 | 23 | 257 | 22.5 | 27.4 | 0.00 | 0.00 | 0.00 | 53 | |
| 20260903233414 | 24 | 92 | 6.4 | 27.4 | 0.00 | 0.00 | 0.00 | 55 | |
| 20260903233212 | 23 | 255 | 12.9 | 27.4 | 0.00 | 0.00 | 0.00 | 56 | |
| 20260903232606 | 24 | 262 | 17.7 | 27.4 | 0.00 | 0.00 | 0.00 | 54 | |
| 20260903232404 | 24 | 262 | 20.9 | 27.4 | 0.00 | 0.00 | 0.00 | 54 | |
| 20260903231800 | 24 | 260 | 22.5 | 25.7 | 0.00 | 0.00 | 0.00 | 52 | |
| 20260903231558 | 24 | 248 | 16.1 | 24.1 | 0.00 | 0.00 | 0.00 | 53 | |
| 20260903231356 | 24 | 226 | 11.3 | 24.1 | 0.00 | 0.00 | 0.00 | 54 | |
| 20260903231154 | 24 | 275 | 16.1 | 25.7 | 0.00 | 0.00 | 0.00 | 55 | |
| 20260903230952 | 24 | 237 | 11.3 | 25.7 | 0.00 | 0.00 | 0.00 | 55 | |
| 20260903230750 | 24 | 246 | 19.3 | 25.7 | 0.00 | 0.00 | 0.00 | 53 | |
| 20260903230345 | 24 | 254 | 19.3 | 27.4 | 0.00 | 0.00 | 0.00 | 54 | |
| 20260903225942 | 25 | 261 | 12.9 | 27.4 | 0.00 | 0.00 | 0.00 | 52 | |
| 20260903225538 | 24 | 251 | 16.1 | 27.4 | 0.00 | 0.00 | 0.00 | 54 | |
| 20260903225337 | 24 | 247 | 16.1 | 27.4 | 0.00 | 0.00 | 0.00 | 55 | |
| 20260903225135 | 24 | 265 | 11.3 | 25.7 | 0.00 | 0.00 | 0.00 | 55 | |
| 20260903224931 | 25 | 270 | 20.9 | 25.7 | 0.00 | 0.00 | 0.00 | 55 | |
| 20260903224731 | 24 | 264 | 11.3 | 32.2 | 0.00 | 0.00 | 0.00 | 55 | |
| 20260903224529 | 25 | 277 | 19.3 | 32.2 | 0.00 | 0.00 | 0.00 | 55 | |
| 20260903224327 | 24 | 250 | 16.1 | 32.2 | 0.00 | 0.00 | 0.00 | 55 | |
| 20260903224125 | 25 | 262 | 24.1 | 29.0 | 0.00 | 0.00 | 0.00 | 54 | |
| 20260903223923 | 25 | 255 | 17.7 | 29.0 | 0.00 | 0.00 | 0.00 | 54 | |
| 20260903223721 | 25 | 268 | 16.1 | 27.4 | 0.00 | 0.00 | 0.00 | 54 | |
| 20260903223519 | 25 | 255 | 19.3 | 27.4 | 0.00 | 0.00 | 0.00 | 54 | |
| 20260903223316 | 25 | 250 | 17.7 | 27.4 | 0.00 | 0.00 | 0.00 | 54 | |
| 20260903223115 | 25 | 244 | 9.7 | 25.7 | 0.00 | 0.00 | 0.00 | 55 | |
| 20260903222911 | 25 | 270 | 16.1 | 25.7 | 0.00 | 0.00 | 0.00 | 56 | |
| 20260903222709 | 25 | 272 | 17.7 | 30.6 | 0.00 | 0.00 | 0.00 | 57 | |
| 20260903222508 | 24 | 253 | 14.5 | 30.6 | 0.00 | 0.00 | 0.00 | 57 | |
| 20260903222308 | 24 | 262 | 14.5 | 30.6 | 0.00 | 0.00 | 0.00 | 57 | |
| 20260903222105 | 25 | 265 | 9.7 | 25.7 | 0.00 | 0.00 | 0.00 | 57 | |
| 20260903221902 | 24 | 264 | 14.5 | 25.7 | 0.00 | 0.00 | 0.00 | 57 | |
| 20260903221701 | 24 | 274 | 17.7 | 25.7 | 0.00 | 0.00 | 0.00 | 57 | |
| 20260903221459 | 25 | 250 | 14.5 | 25.7 | 0.00 | 0.00 | 0.00 | 57 | |
| 20260903221257 | 25 | 254 | 14.5 | 25.7 | 0.00 | 0.00 | 0.00 | 56 | |
| 20260903221055 | 25 | 278 | 16.1 | 25.7 | 0.00 | 0.00 | 0.00 | 56 | |
| 20260903220854 | 25 | 237 | 19.3 | 25.7 | 0.00 | 0.00 | 0.00 | 56 | |
| 20260903220652 | 25 | 251 | 14.5 | 27.4 | 0.00 | 0.00 | 0.00 | 56 | |
| 20260903220249 | 25 | 270 | 12.9 | 27.4 | 0.00 | 0.00 | 0.00 | 56 | |
| 20260903220046 | 25 | 262 | 14.5 | 25.7 | 0.00 | 0.00 | 0.00 | 57 | |
| 20260903215844 | 25 | 291 | 16.1 | 25.7 | 0.00 | 0.00 | 0.00 | 56 | |
| 20260903215238 | 25 | 261 | 16.1 | 27.4 | 0.00 | 0.00 | 0.00 | 57 | |
| 20260903215036 | 25 | 288 | 16.1 | 27.4 | 0.00 | 0.00 | 0.00 | 57 | |
| 20260903214834 | 25 | 243 | 16.1 | 27.4 | 0.00 | 0.00 | 0.00 | 57 | |
| 20260903214632 | 25 | 267 | 17.7 | 25.7 | 0.00 | 0.00 | 0.00 | 56 | |
| 20260903214431 | 25 | 241 | 6.4 | 25.7 | 0.00 | 0.00 | 0.00 | 57 | |
| 20260903214228 | 25 | 264 | 9.7 | 24.1 | 0.00 | 0.00 | 0.00 | 58 | |
| 20260903214028 | 25 | 264 | 17.7 | 24.1 | 0.00 | 0.00 | 0.00 | 57 | |
| 20260903213825 | 25 | 274 | 6.4 | 24.1 | 0.00 | 0.00 | 0.00 | 57 | |
| 20260903213420 | 25 | 258 | 19.3 | 29.0 | 0.00 | 0.00 | 0.00 | 58 | |
| 20260903213218 | 25 | 272 | 14.5 | 24.1 | 0.00 | 0.00 | 0.00 | 58 | |
| 20260903213015 | 25 | 260 | 17.7 | 24.1 | 0.00 | 0.00 | 0.00 | 57 | |
| 20260903212814 | 25 | 246 | 14.5 | 24.1 | 0.00 | 0.00 | 0.00 | 56 | |
| 20260903212611 | 25 | 293 | 6.4 | 29.0 | 0.00 | 0.00 | 0.00 | 57 | |
| 20260903212411 | 25 | 223 | 14.5 | 29.0 | 0.00 | 0.00 | 0.00 | 57 | |
| 20260903212207 | 25 | 246 | 17.7 | 27.4 | 0.00 | 0.00 | 0.00 | 57 | |
| 20260903211603 | 25 | 261 | 25.7 | 25.7 | 0.00 | 0.00 | 0.00 | 58 | |
| 20260903211401 | 25 | 246 | 9.7 | 25.7 | 0.00 | 0.00 | 0.00 | 58 | |
| 20260903211159 | 25 | 253 | 22.5 | 29.0 | 0.00 | 0.00 | 0.00 | 56 | |
| 20260903210553 | 25 | 246 | 12.9 | 27.4 | 0.00 | 0.00 | 0.00 | 57 | |
| 20260903210350 | 25 | 281 | 17.7 | 27.4 | 0.00 | 0.00 | 0.00 | 56 | |
| 20260903210149 | 25 | 274 | 11.3 | 27.4 | 0.00 | 0.00 | 0.00 | 56 | |
| 20260903205945 | 25 | 275 | 14.5 | 27.4 | 0.00 | 0.00 | 0.00 | 56 | |
| 20260903205745 | 25 | 254 | 16.1 | 29.0 | 0.00 | 0.00 | 0.00 | 56 | |
| 20260903204936 | 25 | 278 | 11.3 | 37.0 | 0.00 | 0.00 | 0.00 | 57 | |
| 20260903204735 | 25 | 254 | 25.7 | 22.5 | 0.00 | 0.00 | 0.00 | 56 | |
| 20260903204534 | 26 | 279 | 19.3 | 22.5 | 0.00 | 0.00 | 0.00 | 55 | |
| 20260903204331 | 26 | 261 | 11.3 | 22.5 | 0.00 | 0.00 | 0.00 | 54 | |
| 20260903204130 | 26 | 255 | 6.4 | 27.4 | 0.00 | 0.00 | 0.00 | 55 | |
| 20260903203927 | 26 | 264 | 14.5 | 27.4 | 0.00 | 0.00 | 0.00 | 55 | |
| 20260903203724 | 25 | 265 | 16.1 | 25.7 | 0.00 | 0.00 | 0.00 | 55 | |
| 20260903203320 | 26 | 225 | 16.1 | 25.7 | 0.00 | 0.00 | 0.00 | 53 | |
| 20260903203120 | 26 | 234 | 12.9 | 27.4 | 0.00 | 0.00 | 0.00 | 53 | |
| 20260903202918 | 26 | 234 | 16.1 | 27.4 | 0.00 | 0.00 | 0.00 | 53 | |
| 20260903202716 | 26 | 268 | 12.9 | 27.4 | 0.00 | 0.00 | 0.00 | 52 | |
| 20260903202514 | 26 | 277 | 3.2 | 27.4 | 0.00 | 0.00 | 0.00 | 52 | |
| 20260903202312 | 26 | 261 | 8.0 | 27.4 | 0.00 | 0.00 | 0.00 | 52 | |
| 20260903202110 | 26 | 274 | 8.0 | 22.5 | 0.00 | 0.00 | 0.00 | 52 | |
| 20260903201908 | 26 | 244 | 24.1 | 22.5 | 0.00 | 0.00 | 0.00 | 51 | |
| 20260903201706 | 27 | 271 | 6.4 | 22.5 | 0.00 | 0.00 | 0.00 | 50 | |
| 20260903201504 | 27 | 243 | 8.0 | 22.5 | 0.00 | 0.00 | 0.00 | 50 | |
| 20260903201302 | 26 | 248 | 8.0 | 22.5 | 0.00 | 0.00 | 0.00 | 51 | |
| 20260903201058 | 26 | 257 | 11.3 | 22.5 | 0.00 | 0.00 | 0.00 | 52 | |
| 20260903200858 | 26 | 255 | 11.3 | 22.5 | 0.00 | 0.00 | 0.00 | 52 | |
| 20260903200656 | 26 | 264 | 17.7 | 24.1 | 0.00 | 0.00 | 0.00 | 51 | |
| 20260903200454 | 26 | 250 | 16.1 | 24.1 | 0.00 | 0.00 | 0.00 | 50 | |
| 20260903200252 | 26 | 296 | 12.9 | 24.1 | 0.00 | 0.00 | 0.00 | 50 | |
| 20260903195849 | 26 | 240 | 12.9 | 19.3 | 0.00 | 0.00 | 0.00 | 49 | |
| 20260903195646 | 26 | 247 | 12.9 | 19.3 | 0.00 | 0.00 | 0.00 | 50 | |
| 20260903195444 | 26 | 236 | 9.7 | 19.3 | 0.00 | 0.00 | 0.00 | 51 | |
| 20260903195241 | 26 | 264 | 14.5 | 25.7 | 0.00 | 0.00 | 0.00 | 50 | |
| 20260903195040 | 26 | 237 | 6.4 | 25.7 | 0.00 | 0.00 | 0.00 | 50 | |
| 20260903194837 | 26 | 265 | 12.9 | 25.7 | 0.00 | 0.00 | 0.00 | 50 | |
| 20260903194636 | 26 | 265 | 24.1 | 20.9 | 0.00 | 0.00 | 0.00 | 50 | |
| 20260903194231 | 26 | 241 | 14.5 | 22.5 | 0.00 | 0.00 | 0.00 | 49 | |
| 20260903194030 | 26 | 265 | 3.2 | 22.5 | 0.00 | 0.00 | 0.00 | 50 | |
| 20260903193628 | 26 | 270 | 19.3 | 24.1 | 0.00 | 0.00 | 0.00 | 49 | |
| 20260903193425 | 26 | 272 | 12.9 | 24.1 | 0.00 | 0.00 | 0.00 | 49 | |
| 20260903193019 | 26 | 254 | 20.9 | 22.5 | 0.00 | 0.00 | 0.00 | 49 | |
| 20260903192819 | 26 | 254 | 24.1 | 22.5 | 0.00 | 0.00 | 0.00 | 49 | |
| 20260903192615 | 26 | 250 | 14.5 | 24.1 | 0.00 | 0.00 | 0.00 | 49 | |
| 20260903192415 | 26 | 243 | 19.3 | 24.1 | 0.00 | 0.00 | 0.00 | 48 | |
| 20260903192213 | 26 | 239 | 14.5 | 24.1 | 0.00 | 0.00 | 0.00 | 48 | |
| 20260903192011 | 26 | 260 | 11.3 | 24.1 | 0.00 | 0.00 | 0.00 | 48 | |
| 20260903191807 | 26 | 288 | 4.8 | 24.1 | 0.00 | 0.00 | 0.00 | 47 | |
| 20260903191607 | 27 | 264 | 20.9 | 16.1 | 0.00 | 0.00 | 0.00 | 46 | |
| 20260903191405 | 27 | 278 | 12.9 | 16.1 | 0.00 | 0.00 | 0.00 | 45 | |
| 20260903191203 | 28 | 306 | 6.4 | 12.9 | 0.00 | 0.00 | 0.00 | 44 | |
| 20260903191001 | 28 | 258 | 3.2 | 12.9 | 0.00 | 0.00 | 0.00 | 44 | |
| 20260903190557 | 28 | 227 | 3.2 | 9.7 | 0.00 | 0.00 | 0.00 | 44 | |
| 20260903190356 | 28 | 281 | 11.3 | 9.7 | 0.00 | 0.00 | 0.00 | 44 | |
| 20260903190153 | 28 | 119 | 1.6 | 12.9 | 0.00 | 0.00 | 0.00 | 44 | |
| 20260903185951 | 28 | 94 | 6.4 | 12.9 | 0.00 | 0.00 | 0.00 | 44 | |
| 20260903185346 | 28 | 143 | 0.0 | 12.9 | 0.00 | 0.00 | 0.00 | 44 | |
| 20260903185144 | 28 | 104 | 6.4 | 9.7 | 0.00 | 0.00 | 0.00 | 43 | |
| 20260903184942 | 27 | 140 | 4.8 | 9.7 | 0.00 | 0.00 | 0.00 | 44 | |
| 20260903184738 | 28 | 144 | 4.8 | 8.0 | 0.00 | 0.00 | 0.00 | 44 | |
| 20260903184537 | 27 | 82 | 0.0 | 8.0 | 0.00 | 0.00 | 0.00 | 44 | |
| 20260903184336 | 27 | 160 | 1.6 | 8.0 | 0.00 | 0.00 | 0.00 | 44 | |
| 20260903184134 | 27 | 188 | 4.8 | 9.7 | 0.00 | 0.00 | 0.00 | 44 | |
| 20260903183932 | 27 | 11 | 3.2 | 9.7 | 0.00 | 0.00 | 0.00 | 45 | |
| 20260903183729 | 27 | 39 | 0.0 | 9.7 | 0.00 | 0.00 | 0.00 | 46 | |
| 20260903183528 | 27 | 336 | 1.6 | 9.7 | 0.00 | 0.00 | 0.00 | 46 | |
| 20260903183325 | 27 | 137 | 3.2 | 9.7 | 0.00 | 0.00 | 0.00 | 46 | |
| 20260903183124 | 26 | 122 | 1.6 | 8.0 | 0.00 | 0.00 | 0.00 | 46 | |
| 20260903182921 | 27 | 203 | 8.0 | 8.0 | 0.00 | 0.00 | 0.00 | 46 | |
| 20260903182718 | 27 | 168 | 3.2 | 14.5 | 0.00 | 0.00 | 0.00 | 46 | |
| 20260903182316 | 26 | 317 | 3.2 | 14.5 | 0.00 | 0.00 | 0.00 | 46 | |
| 20260903182114 | 26 | 229 | 6.4 | 12.9 | 0.00 | 0.00 | 0.00 | 47 | |
| 20260903181912 | 26 | 202 | 4.8 | 12.9 | 0.00 | 0.00 | 0.00 | 48 | |
| 20260903181710 | 26 | 102 | 0.0 | 12.9 | 0.00 | 0.00 | 0.00 | 48 | |
| 20260903181508 | 26 | 136 | 1.6 | 12.9 | 0.00 | 0.00 | 0.00 | 47 | |
| 20260903181306 | 26 | 92 | 6.4 | 12.9 | 0.00 | 0.00 | 0.00 | 47 | |
| 20260903181104 | 26 | 154 | 6.4 | 12.9 | 0.00 | 0.00 | 0.00 | 47 | |
| 20260903180700 | 26 | 130 | 6.4 | 9.7 | 0.00 | 0.00 | 0.00 | 48 | |
| 20260903180458 | 26 | 151 | 9.7 | 9.7 | 0.00 | 0.00 | 0.00 | 48 | |
| 20260903180256 | 26 | 150 | 1.6 | 9.7 | 0.00 | 0.00 | 0.00 | 48 | |
| 20260903180055 | 26 | 118 | 4.8 | 9.7 | 0.00 | 0.00 | 0.00 | 48 | |
| 20260903175853 | 26 | 42 | 0.0 | 9.7 | 0.00 | 0.00 | 0.00 | 48 | |
| 20260903175650 | 26 | 42 | 0.0 | 9.7 | 0.00 | 0.00 | 0.00 | 48 | |
| 20260903175448 | 26 | 88 | 4.8 | 9.7 | 0.00 | 0.00 | 0.00 | 48 | |
| 20260903175247 | 26 | 98 | 1.6 | 9.7 | 0.00 | 0.00 | 0.00 | 49 | |
| 20260903175044 | 26 | 116 | 0.0 | 11.3 | 0.00 | 0.00 | 0.00 | 50 | |
| 20260903174842 | 26 | 119 | 4.8 | 11.3 | 0.00 | 0.00 | 0.00 | 49 | |
| 20260903174641 | 26 | 82 | 1.6 | 6.4 | 0.00 | 0.00 | 0.00 | 50 | |
| 20260903174439 | 26 | 66 | 1.6 | 6.4 | 0.00 | 0.00 | 0.00 | 51 | |
| 20260903174236 | 25 | 49 | 0.0 | 1.6 | 0.00 | 0.00 | 0.00 | 52 | |
| 20260903173833 | 25 | 165 | 1.6 | 1.6 | 0.00 | 0.00 | 0.00 | 53 | |
| 20260903173631 | 25 | 1 | 0.0 | 8.0 | 0.00 | 0.00 | 0.00 | 54 | |
| 20260903173427 | 25 | 274 | 0.0 | 8.0 | 0.00 | 0.00 | 0.00 | 55 | |
| 20260903173227 | 25 | 274 | 0.0 | 14.5 | 0.00 | 0.00 | 0.00 | 54 | |
| 20260903173024 | 25 | 286 | 6.4 | 14.5 | 0.00 | 0.00 | 0.00 | 52 | |
| 20260903172821 | 25 | 36 | 0.0 | 14.5 | 0.00 | 0.00 | 0.00 | 53 | |
| 20260903172621 | 25 | 68 | 1.6 | 9.7 | 0.00 | 0.00 | 0.00 | 53 | |
| 20260903172419 | 25 | 116 | 4.8 | 9.7 | 0.00 | 0.00 | 0.00 | 54 | |
| 20260903172215 | 25 | 97 | 3.2 | 6.4 | 0.00 | 0.00 | 0.00 | 54 | |
| 20260903172015 | 25 | 91 | 4.8 | 6.4 | 0.00 | 0.00 | 0.00 | 54 | |
| 20260903171813 | 25 | 43 | 0.0 | 6.4 | 0.00 | 0.00 | 0.00 | 54 | |
| 20260903171610 | 25 | 355 | 0.0 | 9.7 | 0.00 | 0.00 | 0.00 | 54 | |
| 20260903171409 | 25 | 167 | 0.0 | 9.7 | 0.00 | 0.00 | 0.00 | 54 | |
| 20260903170804 | 25 | 37 | 1.6 | 4.8 | 0.00 | 0.00 | 0.00 | 54 | |
| 20260903170601 | 25 | 181 | 3.2 | 3.2 | 0.00 | 0.00 | 0.00 | 54 | |
| 20260903170358 | 24 | 185 | 3.2 | 3.2 | 0.00 | 0.00 | 0.00 | 56 | |
| 20260903170157 | 24 | 54 | 0.0 | 8.0 | 0.00 | 0.00 | 0.00 | 56 | |
| 20260903165953 | 24 | 49 | 1.6 | 8.0 | 0.00 | 0.00 | 0.00 | 57 | |
| 20260903165753 | 24 | 175 | 1.6 | 8.0 | 0.00 | 0.00 | 0.00 | 56 | |
| 20260903165552 | 23 | 66 | 0.0 | 11.3 | 0.00 | 0.00 | 0.00 | 57 | |
| 20260903165349 | 23 | 57 | 0.0 | 11.3 | 0.00 | 0.00 | 0.00 | 58 | |
| 20260903164945 | 23 | 113 | 4.8 | 6.4 | 0.00 | 0.00 | 0.00 | 58 | |
| 20260903164542 | 23 | 26 | 0.0 | 8.0 | 0.00 | 0.00 | 0.00 | 58 | |
| 20260903164340 | 23 | 125 | 6.4 | 8.0 | 0.00 | 0.00 | 0.00 | 57 | |
| 20260903164136 | 23 | 160 | 0.0 | 8.0 | 0.00 | 0.00 | 0.00 | 57 | |
| 20260903163936 | 23 | 94 | 0.0 | 8.0 | 0.00 | 0.00 | 0.00 | 57 | |
| 20260903163734 | 23 | 82 | 3.2 | 8.0 | 0.00 | 0.00 | 0.00 | 58 | |
| 20260903163532 | 23 | 226 | 1.6 | 8.0 | 0.00 | 0.00 | 0.00 | 57 | |
| 20260903163328 | 23 | 75 | 6.4 | 8.0 | 0.00 | 0.00 | 0.00 | 59 | |
| 20260903163128 | 23 | 146 | 0.0 | 14.5 | 0.00 | 0.00 | 0.00 | 59 | |
| 20260903162926 | 23 | 122 | 1.6 | 14.5 | 0.00 | 0.00 | 0.00 | 60 | |
| 20260903162722 | 22 | 111 | 0.0 | 9.7 | 0.00 | 0.00 | 0.00 | 59 | |
| 20260903162522 | 22 | 119 | 4.8 | 9.7 | 0.00 | 0.00 | 0.00 | 59 | |
| 20260903162320 | 22 | 143 | 1.6 | 9.7 | 0.00 | 0.00 | 0.00 | 60 | |
| 20260903162118 | 22 | 153 | 3.2 | 12.9 | 0.00 | 0.00 | 0.00 | 60 | |
| 20260903161916 | 22 | 142 | 3.2 | 12.9 | 0.00 | 0.00 | 0.00 | 61 | |
| 20260903160905 | 22 | 142 | 6.4 | 12.9 | 0.00 | 0.00 | 0.00 | 64 | |
| 20260903160703 | 21 | 106 | 9.7 | 11.3 | 0.00 | 0.00 | 0.00 | 63 | |
| 20260903160503 | 21 | 78 | 1.6 | 11.3 | 0.00 | 0.00 | 0.00 | 64 | |
| 20260903160301 | 22 | 113 | 6.4 | 11.3 | 0.00 | 0.00 | 0.00 | 65 | |
| 20260903160057 | 21 | 133 | 6.4 | 12.9 | 0.00 | 0.00 | 0.00 | 65 | |
| 20260903155855 | 21 | 92 | 8.0 | 12.9 | 0.00 | 0.00 | 0.00 | 65 | |
| 20260903155655 | 21 | 146 | 4.8 | 12.9 | 0.00 | 0.00 | 0.00 | 67 | |
| 20260903155452 | 21 | 168 | 6.4 | 12.9 | 0.00 | 0.00 | 0.00 | 67 | |
| 20260903155249 | 21 | 105 | 6.4 | 12.9 | 0.00 | 0.00 | 0.00 | 67 | |
| 20260903155048 | 21 | 104 | 4.8 | 9.7 | 0.00 | 0.00 | 0.00 | 67 | |
| 20260903154847 | 21 | 109 | 8.0 | 9.7 | 0.00 | 0.00 | 0.00 | 67 | |
| 20260903154441 | 21 | 127 | 3.2 | 9.7 | 0.00 | 0.00 | 0.00 | 67 | |
| 20260903154239 | 20 | 165 | 4.8 | 8.0 | 0.00 | 0.00 | 0.00 | 68 | |
| 20260903154042 | 20 | 156 | 1.6 | 8.0 | 0.00 | 0.00 | 0.00 | 68 | |
| 20260903153835 | 20 | 106 | 4.8 | 8.0 | 0.00 | 0.00 | 0.00 | 69 | |
| 20260903153433 | 20 | 90 | 0.0 | 3.2 | 0.00 | 0.00 | 0.00 | 68 | |
| 20260903153231 | 20 | 132 | 1.6 | 6.4 | 0.00 | 0.00 | 0.00 | 69 | |
| 20260903153028 | 20 | 143 | 1.6 | 6.4 | 0.00 | 0.00 | 0.00 | 69 | |
| 20260903152734 | 20 | 130 | 3.2 | 4.8 | 0.00 | 0.00 | 0.00 | 69 | |
| 20260903152624 | 20 | 64 | 3.2 | 4.8 | 0.00 | 0.00 | 0.00 | 69 | |
| 20260903152422 | 20 | 130 | 3.2 | 4.8 | 0.00 | 0.00 | 0.00 | 69 | |
| 20260903152020 | 19 | 135 | 1.6 | 4.8 | 0.00 | 0.00 | 0.00 | 69 | |
| 20260903151818 | 19 | 151 | 1.6 | 4.8 | 0.00 | 0.00 | 0.00 | 69 | |
| 20260903151614 | 18 | 122 | 3.2 | 3.2 | 0.00 | 0.00 | 0.00 | 69 | |
| 20260903151412 | 18 | 150 | 1.6 | 3.2 | 0.00 | 0.00 | 0.00 | 70 | |
| 20260903151211 | 18 | 132 | 1.6 | 0.0 | 0.00 | 0.00 | 0.00 | 71 | |
| 20260903151010 | 18 | 106 | 0.0 | 0.0 | 0.00 | 0.00 | 0.00 | 72 | |
| 20260903150807 | 17 | 106 | 0.0 | 0.0 | 0.00 | 0.00 | 0.00 | 72 | |
| 20260903150605 | 17 | 106 | 0.0 | 0.0 | 0.00 | 0.00 | 0.00 | 73 | |
| 20260903150405 | 17 | 106 | 0.0 | 0.0 | 0.00 | 0.00 | 0.00 | 73 | |
| 20260903150001 | 17 | 106 | 0.0 | 0.0 | 0.00 | 0.00 | 0.00 | 75 | |
| 20260903145759 | 16 | 106 | 0.0 | 0.0 | 0.00 | 0.00 | 0.00 | 74 | |
| 20260903145557 | 16 | 106 | 0.0 | 0.0 | 0.00 | 0.00 | 0.00 | 75 | |
| 20260903145356 | 16 | 106 | 0.0 | 0.0 | 0.00 | 0.00 | 0.00 | 75 | |
| 20260903144950 | 16 | 106 | 0.0 | 0.0 | 0.00 | 0.00 | 0.00 | 75 | |
| 20260903144548 | 16 | 106 | 0.0 | 1.6 | 0.00 | 0.00 | 0.00 | 75 | |
| 20260903144346 | 16 | 106 | 0.0 | 1.6 | 0.00 | 0.00 | 0.00 | 75 | |
| 20260903144144 | 16 | 106 | 0.0 | 3.2 | 0.00 | 0.00 | 0.00 | 75 | |
| 20260903143942 | 15 | 106 | 0.0 | 3.2 | 0.00 | 0.00 | 0.00 | 76 | |
| 20260903143740 | 15 | 108 | 0.0 | 0.0 | 0.00 | 0.00 | 0.00 | 77 | |
| 20260903143538 | 15 | 71 | 0.0 | 0.0 | 0.00 | 0.00 | 0.00 | 77 | |
| 20260903142932 | 15 | 71 | 0.0 | 0.0 | 0.00 | 0.00 | 0.00 | 80 | |
| 20260903142731 | 15 | 71 | 0.0 | 0.0 | 0.00 | 0.00 | 0.00 | 80 | |
| 20260903142528 | 15 | 71 | 0.0 | 0.0 | 0.00 | 0.00 | 0.00 | 80 | |
| 20260903142325 | 14 | 71 | 0.0 | 0.0 | 0.00 | 0.00 | 0.00 | 81 | |
| 20260903142306 | 14 | 71 | 0.0 | 0.0 | 0.00 | 0.00 | 0.00 | 80 | |
| 20260903142124 | 14 | 71 | 0.0 | 0.0 | 0.00 | 0.00 | 0.00 | 80 | |
| 20260903141719 | 14 | 71 | 0.0 | 0.0 | 0.00 | 0.00 | 0.00 | 81 |